Weather History for KCWI - February, 2013

Change the Weather History Date:

Thursday, February 14, 2013

  Actual Average Record
Temperature  
Mean Temperature 34 °F -  
Max Temperature 39 °F 34 °F 62 °F (1954)
Min Temperature 28 °F 17 °F -4 °F (2015)
Degree Days  
Heating Degree Days 32    
Moisture  
Dew Point 27 °F    
Average Humidity 74    
Maximum Humidity 93    
Minimum Humidity 56    
Precipitation  
Precipitation 0.00 in - - ()
Sea Level Pressure  
Sea Level Pressure 29.84 in    
Wind  
Wind Speed 14 mph (WNW)    
Max Wind Speed 24 mph    
Max Gust Speed 29 mph    
Visibility 10 miles    
Events      
Averages and records for this station are not official NWS values.
T = Trace of Precipitation, MM = Missing Value Source: NWS Daily Summary

Daily Weather History Graph

Daily Weather History Graph

Search for Another Location

Airport or City:

Trip Planner

Search our weather history database for the weather conditions in past years. The results will help you decide how hot, cold, wet, or windy it might be!

Date:

Astronomy

Feb. 14, 2013 Rise Set
Actual Time 6:57 AM CST 5:33 PM CST
Civil Twilight 6:29 AM CST 6:02 PM CST
Nautical Twilight 5:56 AM CST 6:34 PM CST
Astronomical Twilight 5:24 AM CST 7:07 PM CST
Moon 8:54 AM CST (2/14) 10:42 PM CST (2/14)
Length of Visible Light 11h 32m
Length of Day
10h 35m
Waxing Crescent, 22% of the Moon is Illuminated
Feb 14
Waxing Crescent
Feb 17
First Quarter
Feb 25
Full
Mar 4
Last Quarter
Mar 11
New

Hourly Weather History & Observations

Time (CST) Temp. Windchill Dew Point Humidity Pressure Visibility Wind Dir Wind Speed Gust Speed Precip Events Conditions
12:15 AM 37.4 °F 30.3 °F 28.4 °F 70% 29.69 in 10.0 mi SSW 10.4 mph - N/A   Scattered Clouds
12:35 AM 37.4 °F 30.3 °F 28.4 °F 70% 29.68 in 10.0 mi SSW 10.4 mph - N/A   Mostly Cloudy
12:55 AM 37.4 °F 29.3 °F 28.4 °F 70% 29.68 in 10.0 mi SSW 12.7 mph - N/A   Mostly Cloudy
1:15 AM 37.4 °F 30.3 °F 28.4 °F 70% 29.67 in 10.0 mi SW 10.4 mph - N/A   Overcast
1:35 AM 37.4 °F 28.5 °F 28.4 °F 70% 29.67 in 10.0 mi SW 15.0 mph - N/A   Mostly Cloudy
1:55 AM 37.4 °F 28.9 °F 28.4 °F 70% 29.67 in 10.0 mi SW 13.8 mph - N/A   Overcast
2:15 AM 37.4 °F 28.2 °F 28.4 °F 70% 29.67 in 10.0 mi SW 16.1 mph - N/A   Scattered Clouds
2:35 AM 35.6 °F 26.6 °F 28.4 °F 75% 29.67 in 10.0 mi SW 13.8 mph - N/A   Clear
2:55 AM 35.6 °F 27.1 °F 26.6 °F 70% 29.66 in 10.0 mi SW 12.7 mph - N/A   Clear
3:15 AM 35.6 °F 26.2 °F 26.6 °F 70% 29.66 in 10.0 mi WSW 15.0 mph - N/A   Clear
3:35 AM 35.6 °F 26.6 °F 28.4 °F 75% 29.66 in 10.0 mi WSW 13.8 mph - N/A   Clear
3:55 AM 35.6 °F 26.2 °F 28.4 °F 75% 29.66 in 10.0 mi WSW 15.0 mph - N/A   Clear
4:15 AM 35.6 °F 27.1 °F 28.4 °F 75% 29.67 in 10.0 mi West 12.7 mph - N/A   Clear
4:35 AM 33.8 °F 24.8 °F 28.4 °F 81% 29.67 in 10.0 mi West 12.7 mph - N/A   Clear
4:55 AM 33.8 °F 24.8 °F 28.4 °F 81% 29.67 in 10.0 mi West 12.7 mph - N/A   Clear
5:15 AM 33.8 °F 24.3 °F 28.4 °F 81% 29.68 in 10.0 mi West 13.8 mph - N/A   Scattered Clouds
5:35 AM 35.6 °F 26.6 °F 28.4 °F 75% 29.68 in 10.0 mi West 13.8 mph - N/A   Overcast
5:55 AM 35.6 °F 26.2 °F 28.4 °F 75% 29.68 in 10.0 mi West 15.0 mph - N/A   Overcast
6:15 AM 35.6 °F 26.6 °F 28.4 °F 75% 29.69 in 10.0 mi West 13.8 mph - N/A   Overcast
6:35 AM 35.6 °F 25.9 °F 28.4 °F 75% 29.70 in 10.0 mi West 16.1 mph - N/A   Overcast
6:55 AM 35.6 °F 24.0 °F 28.4 °F 75% 29.70 in 10.0 mi West 23.0 mph 28.8 mph N/A   Overcast
7:15 AM 35.6 °F 24.0 °F 28.4 °F 75% 29.71 in 10.0 mi West 23.0 mph - N/A   Overcast
7:35 AM 33.8 °F 23.2 °F 26.6 °F 75% 29.73 in 10.0 mi West 17.3 mph 21.9 mph N/A   Overcast
7:55 AM 33.8 °F 23.9 °F 26.6 °F 75% 29.74 in 10.0 mi West 15.0 mph - N/A   Overcast
8:15 AM 33.8 °F 23.5 °F 26.6 °F 75% 29.74 in 10.0 mi West 16.1 mph - N/A   Overcast
8:35 AM 33.8 °F 23.9 °F 28.4 °F 81% 29.75 in 10.0 mi West 15.0 mph - N/A   Overcast
8:55 AM 33.8 °F 22.8 °F 28.4 °F 81% 29.75 in 10.0 mi West 18.4 mph 21.9 mph N/A   Overcast
9:15 AM 35.6 °F 25.2 °F 28.4 °F 75% 29.76 in 10.0 mi WNW 18.4 mph 25.3 mph N/A   Overcast
9:35 AM 35.6 °F 24.2 °F 28.4 °F 75% 29.77 in 10.0 mi West 21.9 mph 26.5 mph N/A   Overcast
9:55 AM 35.6 °F 24.0 °F 28.4 °F 75% 29.78 in 10.0 mi WNW 23.0 mph 27.6 mph N/A   Overcast
10:15 AM 35.6 °F 24.2 °F 28.4 °F 75% 29.79 in 10.0 mi WNW 21.9 mph - N/A   Overcast
10:35 AM 35.6 °F 24.2 °F 28.4 °F 75% 29.81 in 10.0 mi NW 21.9 mph 27.6 mph N/A   Overcast
10:55 AM 37.4 °F 27.8 °F 28.4 °F 70% 29.82 in 10.0 mi NW 17.3 mph 24.2 mph N/A   Overcast
11:15 AM 37.4 °F 27.2 °F 26.6 °F 65% 29.83 in 10.0 mi NW 19.6 mph 26.5 mph N/A   Overcast
11:35 AM 39.2 °F 29.6 °F 28.4 °F 65% 29.84 in 10.0 mi NW 19.6 mph 26.5 mph N/A   Overcast
11:55 AM 39.2 °F 29.3 °F 28.4 °F 65% 29.85 in 10.0 mi NW 20.7 mph 26.5 mph N/A   Overcast
12:15 PM 39.2 °F 30.2 °F 26.6 °F 61% 29.85 in 10.0 mi NW 17.3 mph - N/A   Mostly Cloudy
12:35 PM 39.2 °F 28.5 °F 28.4 °F 65% 29.84 in 10.0 mi WNW 24.2 mph 27.6 mph N/A   Mostly Cloudy
12:55 PM 39.2 °F 29.3 °F 30.2 °F 70% 29.85 in 10.0 mi WNW 20.7 mph 25.3 mph N/A   Overcast
1:15 PM 39.2 °F 29.3 °F 26.6 °F 61% 29.86 in 10.0 mi NW 20.7 mph - N/A   Overcast
1:35 PM 37.4 °F 27.5 °F 24.8 °F 60% 29.87 in 10.0 mi WNW 18.4 mph - N/A   Mostly Cloudy
1:55 PM 39.2 °F 30.2 °F 26.6 °F 61% 29.87 in 10.0 mi WNW 17.3 mph - N/A   Scattered Clouds
2:15 PM 39.2 °F 29.3 °F 24.8 °F 56% 29.88 in 10.0 mi WNW 20.7 mph 27.6 mph N/A   Mostly Cloudy
2:35 PM 37.4 °F 28.5 °F 24.8 °F 60% 29.89 in 10.0 mi WNW 15.0 mph - N/A   Mostly Cloudy
2:55 PM 37.4 °F 28.5 °F 24.8 °F 60% 29.89 in 10.0 mi NW 15.0 mph 24.2 mph N/A   Mostly Cloudy
3:15 PM 37.4 °F 27.8 °F 23.0 °F 56% 29.90 in 10.0 mi NW 17.3 mph - N/A   Mostly Cloudy
3:35 PM 37.4 °F 28.2 °F 24.8 °F 60% 29.92 in 10.0 mi WNW 16.1 mph 21.9 mph N/A   Scattered Clouds
3:55 PM 37.4 °F 28.5 °F 24.8 °F 60% 29.92 in 10.0 mi WNW 15.0 mph - N/A   Mostly Cloudy
4:15 PM 37.4 °F 28.5 °F 24.8 °F 60% 29.93 in 10.0 mi WNW 15.0 mph 21.9 mph N/A   Mostly Cloudy
4:35 PM 35.6 °F 26.6 °F 24.8 °F 65% 29.95 in 10.0 mi WNW 13.8 mph - N/A   Overcast
4:55 PM 35.6 °F 28.0 °F 24.8 °F 65% 29.95 in 10.0 mi WNW 10.4 mph - N/A   Overcast
5:15 PM 35.6 °F 29.9 °F 26.6 °F 70% 29.96 in 10.0 mi NW 6.9 mph - N/A   Overcast
5:35 PM 33.8 °F 27.7 °F 24.8 °F 70% 29.96 in 10.0 mi NW 6.9 mph - N/A   Overcast
5:55 PM 33.8 °F 29.6 °F 24.8 °F 70% 29.97 in 10.0 mi NNW 4.6 mph - N/A   Overcast
6:15 PM 33.8 °F 27.7 °F 24.8 °F 70% 29.98 in 10.0 mi WNW 6.9 mph - N/A   Overcast
6:35 PM 33.8 °F 26.4 °F 26.6 °F 75% 29.99 in 9.0 mi NW 9.2 mph - N/A   Overcast
6:55 PM 32.0 °F 24.8 °F 28.4 °F 87% 29.99 in 4.0 mi NW 8.1 mph - N/A   Overcast
7:15 PM 32.0 °F 25.6 °F 28.4 °F 87% 30.00 in 5.0 mi NW 6.9 mph - N/A   Mostly Cloudy
7:35 PM 32.0 °F 25.6 °F 28.4 °F 87% 30.00 in 6.0 mi WNW 6.9 mph - N/A   Mostly Cloudy
7:55 PM 32.0 °F 25.6 °F 28.4 °F 87% 30.00 in 8.0 mi NW 6.9 mph - N/A   Scattered Clouds
8:15 PM 32.0 °F 24.8 °F 28.4 °F 87% 30.01 in 9.0 mi WNW 8.1 mph - N/A   Mostly Cloudy
8:35 PM 32.0 °F 25.6 °F 28.4 °F 87% 30.01 in 10.0 mi NW 6.9 mph - N/A   Overcast
8:55 PM 32.0 °F 24.8 °F 28.4 °F 87% 30.01 in 10.0 mi WNW 8.1 mph - N/A   Overcast
9:15 PM 30.2 °F 22.6 °F 28.4 °F 93% 30.02 in 10.0 mi WNW 8.1 mph - N/A   Overcast
9:35 PM 30.2 °F 21.9 °F 26.6 °F 86% 30.02 in 10.0 mi NW 9.2 mph - N/A   Mostly Cloudy
9:55 PM 30.2 °F 22.6 °F 24.8 °F 80% 30.02 in 10.0 mi WNW 8.1 mph - N/A   Partly Cloudy
10:15 PM 28.4 °F 19.7 °F 24.8 °F 86% 30.02 in 10.0 mi West 9.2 mph - N/A   Clear
10:35 PM 28.4 °F 19.7 °F 24.8 °F 86% 30.03 in 10.0 mi NW 9.2 mph - N/A   Clear
10:55 PM 28.4 °F 19.7 °F 24.8 °F 86% 30.04 in 10.0 mi WNW 9.2 mph - N/A   Clear
11:15 PM 28.4 °F 20.4 °F 23.0 °F 80% 30.04 in 10.0 mi WNW 8.1 mph - N/A   Clear
11:35 PM 28.4 °F 21.2 °F 24.8 °F 86% 30.05 in 10.0 mi WNW 6.9 mph - N/A   Mostly Cloudy
11:55 PM 28.4 °F 19.1 °F 24.8 °F 86% 30.05 in 10.0 mi WNW 10.4 mph - N/A   Overcast